Location: Pilipovskiye Korichintsy
(49.1833°N, 27.4667°E)
Time: 12:45:44
(UTC+00:00)

Cosmos 1763 Rocket - Pass Details

Date: 14 July 2020
Orbit: 732 x 781 km, 74.0° (Epoch: 07 August)

Event Time Altitude Azimuth Distance (km) Brightness Sun altitude
Rises 00:41:18 0° 338° (NNW) 3,238 7.2 -12.2°
Reaches altitude 10° 00:43:42 10° 341° (NNW) 2,315 6.5 -11.9°
Maximum altitude 00:48:56 64° 64° (ENE) 855 4.0 -11.4°
Drops below altitude 10° 00:54:11 10° 146° (SE) 2,324 5.8 -10.9°
Sets 00:56:35 0° 149° (SSE) 3,251 6.5 -10.7°
